User: anonymous   Login
Location: Unspecified
(0.0000°N, 0.0000°E)
Time: 07:45:48
(UTC+00:00)
Language:

ITOS 1 - Orbit

View from above orbital plane
View from above orbital plane
View from above satellite
View from above satellite

Ground track
Ground track

The orbit data is extracted from the following two-line orbital elements,

1  4320U 70008A   18112.79448293 -.00000043 +00000-0 +10307-4 0  9996
2  4320 101.7851 182.1736 0028176 320.1620 150.3186 12.52048187401221
Epoch (UTC): 22 April 2018 19:04:03
Eccentricity: 0.0028176
inclination: 101.7851°
perigee height: 1434 km
apogee height: 1478 km
right ascension of ascending node: 182.1736°
argument of perigee: 320.1620°
revolutions per day: 12.52048187
mean anomaly at epoch: 150.3186°
orbit number at epoch: 40122

The dashed part of the orbit path shows where the satellite is in the earth's shadow,  

DLR